Dr. Bill's Marine Weather

Coastal Marine Forecast

       Alabama   Florida   Louisiana   Mississippi

Printer Friendly AL  FL  LA  MS

Data Buoys:   Western Gulf of Mexico    Eastern Gulf of Mexico
**********************************************************************
  Alabama
800 PM CDT FRI AUG 22 2014

ALZ051>064-230200-
SOUTHWEST ALABAMA
  
CITY           SKY/WX    TMP DP  RH WIND       PRES   REMARKS
MOBILE         PTCLDY    84  77  79 SW5       30.02S HX  94           
BROOKLEY FIELD PTCLDY    85  77  77 W6        30.01S HX  95           
EVERGREEN      CLEAR     83  79  88 CALM      30.00S HX  94           
**********************************************************************
  Florida
900 PM EDT FRI AUG 22 2014

FLZ001>010-012>015-112-114-115-230200-
PANHANDLE FLORIDA
  
CITY           SKY/WX    TMP DP  RH WIND       PRES   REMARKS
PENSACOLA      CLEAR     86  74  67 SW9       30.00R                  
PENSACOLA NAS  PTCLDY    84  76  76 SW5       30.00R                  
MILTON NAS     PTCLDY    85  76  74 SW7       30.00S                  
CRESTVIEW      PTCLDY    85  75  72 SW5       30.01R                  
DUKE FIELD     MOCLDY    86  78  76 SW5       30.00R HX  99           
VALPARAISO     PTCLDY    87  77  73 W3        29.99S HX  98           
MARY ESTHER    PTCLDY    86  75  69 W8        29.99S HX  95           
TRI COUNTY     FAIR      82  76  81 S5        30.01R                  
PANAMA CITY    FAIR      85  79  82 W5        29.99S HX  98           
TYNDALL AFB    DRIZZLE   79  78  98 SE1       30.01R                  
APALACHICOLA   CLEAR     80  75  84 CALM      30.00S                  

STATION/POSITION SKY/WX   TEMP    WIND        PRES    WAVE   SWELL
                          AIR SEA DIR/SP/G            HT/PER HT/PER
                          (F)     (DEG/KT/KT) (MB)    (FT/S) (FT/S)
30.1N   87.6W              87 87  230/ 10/ 12 1016.0R   1
29.2N   88.2W              86 90  150/  2/  2 1016.6F
28.8N   86.0W              86 89  350/  2/  4 1016.2    1/ 8
PANAMA CITY BEAC           86 84  260/  7/  8 1015.8F
CAPE SAN BLAS    NOT AVBL
TOWER C                    83     310/  6/  6 1016.1R
28.5N   84.5W              86 87  340/  4/  6 1016.1F   1

**********************************************************************
  Louisiana
800 PM CDT FRI AUG 22 2014

LAZ040-048-061>063-065-066-069-230200-
SOUTHEAST LOUISIANA
  
CITY           SKY/WX    TMP DP  RH WIND       PRES   REMARKS
N.O. AUDUBON     N/A     87  73  62 MISG        N/A                   
N.O. INTL ARPT PTCLDY    86  67  52 W5        30.01S                  
N.O. LAKEFRONT CLEAR     89  72  56 CALM      30.02S HX  96           
N.O. DOWNTOWN* FAIR      91  70  49 S5        30.02S HX  97           
SLIDELL        CLEAR     87  75  67 SW3       30.01S HX  96           
BATON ROUGE    CLEAR     85  75  72 CALM      30.02S                  
BOOTHVILLE     CLEAR     86  73  65 SE3       30.03S                  
BELLE CHASSE   PTCLDY    82  74  76 SW3       30.01S                  
BOGALUSA*      FAIR      85  77  78 CALM      30.02S HX  95           
GALLIANO*      NOT AVBL                                               
NEW ROADS*     FAIR      84  77  80 CALM      30.02S                  
GONZALES*      FAIR      83  82  95 CALM      30.01S HX  99           
HAMMOND*       CLEAR     88  73  62 SW3       30.03S HX  96           
HOUMA*         CLEAR     82  75  78 CALM      30.02S                  
PORT FOURCHON* CLEAR     88  75  66 SE6       30.04S HX  97           

**********************************************************************
  Mississippi
800 PM CDT FRI AUG 22 2014

MSZ080>082-230200-
COASTAL MISSISSIPPI
  
CITY           SKY/WX    TMP DP  RH WIND       PRES   REMARKS
BAY ST LOUIS   CLEAR    N/A N/A N/A CALM      30.01S                  
BILOXI         CLEAR     86  74  68 SW7       30.01S HX  94           
PASCAGOULA     CLEAR     83  76  79 CALM      30.00F HX  91           
GULFPORT       CLEAR     88  75  65 SW3       30.00S HX  97           
About Us | Coastal Marine Forecast | Offshore Marine Forecast | Marine Weather Discussion
Gulf Coast Tides | Exxon Mobil Platform 112B | Hourly Weather Observations | Weather Radar
Severe Weather Potential | Sea Surface Temperatures | Solar/Lunar Data | Hurricane Advisories | Home
     
USA Logo Dr. Bill's Marine Weather
Last date changed: February 4, 2005 12:04 PM
www.gulfmarineweather.com/hourlyweatherobservations.shtml
Contact Us